sat.trackr.live / text

‹ back to catalog

STARLINK-31006

NORAD 59024 · 2024-038B

PAYLOAD ACTIVE UNKNOWN

§ Identity

Operator
Country
US
Launch date
2024-02-25
Launch site
AFETR
Launch vehicle
Mass (kg)
RCS (m²)

Purposes: comms

External: N2YO · Heavens-Above · Gunter

§ Orbital elements

Epoch: 2026-09-19T04:29:40.420896Z

Period
94.27 min
Inclination
43.0007°
Eccentricity
0.0000874
Mean motion
15.27576913 rev/d
Perigee alt
482.5 km
Apogee alt
483.7 km
Semi-major
6,861.2 km
B*
1.7974e-5
RAAN
323.8391°
Arg perigee
263.8633°
Mean anomaly
96.2119°
Rev number
14,493

§ Raw data

STARLINK-310061 59024U 24038B   26262.18727339  .00000233  00000+0  17974-4 0  99942 59024  43.0007 323.8391 0000874 263.8633  96.2119 15.27576913144930

JSON: /api/v1/satellites/59024 · /tle

For live sub-satellite position, see the globe view (requires WebGL).

§ Visibility from observer

Set your observer location to see the next 7 days of passes ≥ 10°. The values pass through the URL so the page stays shareable.

No JS? Fill the form by hand. The geolocation button needs JavaScript.